Location: Unspecified
(0.0000°N, 0.0000°E)
Time: 00:30:12
(UTC+00:00)

COSMOS 2491 DEB - Visible Passes

Search period start: 18 May 2026 00:00
Search period end: 28 May 2026 00:00
Orbit: 1426 x 1501 km, 82.5° (Epoch: 12 May)

Date Brightness Start Highest point End Pass type
(mag) Time Alt. Az. Time Alt. Az. Time Alt. Az.
18 May ? 19:46:48 10° S 19:55:29 72° E 20:03:59 10° N visible
18 May ? 21:48:25 10° WSW 21:51:09 12° W 21:53:54 10° WNW visible
19 May ? 18:50:53 10° SSE 18:57:59 28° E 19:04:55 10° NE visible
19 May ? 20:45:59 10° SSW 20:53:42 36° W 21:01:19 10° NNW visible
20 May ? 19:47:30 10° S 19:56:14 90° W 20:04:48 10° N visible
21 May ? 18:50:59 10° SSE 18:58:44 36° E 19:06:20 10° NNE visible
21 May ? 20:47:26 10° SW 20:54:26 28° W 21:01:23 10° NNW visible
22 May ? 19:48:20 10° S 19:56:59 72° W 20:05:27 10° N visible
23 May ? 18:51:16 10° SSE 18:59:29 47° E 19:07:31 10° NNE visible
23 May ? 20:49:10 10° SW 20:55:10 21° W 21:01:08 10° NW visible
24 May ? 19:49:17 10° SSW 19:57:42 56° W 20:05:59 10° N visible
25 May ? 18:51:42 10° S 19:00:13 60° E 19:08:32 10° NNE visible
25 May ? 20:51:22 10° WSW 20:55:53 15° W 21:00:24 10° NW visible
26 May ? 05:32:52 10° E 05:33:15 10° E 05:33:37 10° E visible
26 May ? 19:50:23 10° SSW 19:58:25 44° W 20:06:21 10° NNW visible
27 May ? 18:52:17 10° S 19:00:56 77° E 19:09:25 10° N visible
27 May ? 20:55:16 10° W 20:56:36 10° W 20:57:56 10° WNW visible
